Tucson, AZ

6:59 AM MST on April 25, 2017 (GMT -0700)
Tucson International

Weather History for KTUS - June, 2012

Change the Weather History Date:

Sunday, June 10, 2012

  Actual Average Record
Temperature  
Mean Temperature 84 °F 84 °F  
Max Temperature 99 °F 100 °F 110 °F (1896)
Min Temperature 69 °F 68 °F 53 °F (1941)
Degree Days  
Heating Degree Days 0 0  
Month to date heating degree days 0 0  
Since 1 June heating degree days 0 0  
Since 1 July heating degree days 1446 1511  
Cooling Degree Days 19 19  
Month to date cooling degree days 198 173  
Year to date cooling degree days 875 675  
Since 1 June cooling degree days 198 173  
Growing Degree Days 34 (Base 50)    
Moisture  
Dew Point 27 °F    
Average Humidity 14    
Maximum Humidity 20    
Minimum Humidity 7    
Precipitation  
Precipitation 0.00 in 0.01 in 0.54 in (1914)
Month to date precipitation 0.00 0.04  
Year to date precipitation 0.68 3.11  
Snow  
Snow 0.00 in - - ()
Month to date snowfall 0.0  
Snow Depth 0.00 in    
Sea Level Pressure  
Sea Level Pressure 29.73 in    
Wind  
Wind Speed 8 mph (SW)    
Max Wind Speed 20 mph    
Max Gust Speed 25 mph    
Visibility 10 miles    
Events      
T = Trace of Precipitation, MM = Missing Value Source: NWS Daily Summary

Daily Weather History Graph

Daily Weather History Graph

Search for Another Location

Airport or City:

Trip Planner

Search our weather history database for the weather conditions in past years. The results will help you decide how hot, cold, wet, or windy it might be!

Date:

Astronomy

Jun. 10, 2012 Rise Set
Actual Time 5:16 AM MST 7:30 PM MST
Civil Twilight 4:48 AM MST 7:58 PM MST
Nautical Twilight 4:14 AM MST 8:32 PM MST
Astronomical Twilight 3:36 AM MST 9:10 PM MST
Moon No Moon Rise 11:48 AM MST (6/10)
Length of Visible Light 15h 09m
Length of Day
14h 13m
Waning Gibbous, 57% of the Moon is Illuminated
Jun 10
Waning Gibbous
Jun 11
Last Quarter
Jun 19
New
Jun 26
First Quarter
Jul 3
Full

Hourly Weather History & Observations

Time (MST) Temp. Dew Point Humidity Pressure Visibility Wind Dir Wind Speed Gust Speed Precip Events Conditions
12:53 AM 78.1 °F 25.0 °F 14% 29.66 in 10.0 mi NE 3.5 mph - N/A   Clear
1:53 AM 78.1 °F 24.1 °F 14% 29.67 in 10.0 mi South 4.6 mph - N/A   Clear
2:53 AM 73.9 °F 25.0 °F 16% 29.68 in 10.0 mi Calm Calm - N/A   Clear
3:53 AM 73.0 °F 26.1 °F 17% 29.70 in 10.0 mi Calm Calm - N/A   Clear
4:53 AM 70.0 °F 26.1 °F 19% 29.72 in 10.0 mi ESE 5.8 mph - N/A   Clear
5:53 AM 69.1 °F 27.0 °F 21% 29.74 in 10.0 mi ESE 8.1 mph - N/A   Clear
6:53 AM 73.9 °F 27.0 °F 18% 29.75 in 10.0 mi SSE 5.8 mph - N/A   Clear
7:53 AM 81.0 °F 25.0 °F 13% 29.77 in 10.0 mi South 8.1 mph - N/A   Clear
8:53 AM 84.0 °F 25.0 °F 12% 29.77 in 10.0 mi South 10.4 mph - N/A   Clear
9:53 AM 89.1 °F 24.1 °F 9% 29.77 in 10.0 mi SSW 11.5 mph 21.9 mph N/A   Clear
10:53 AM 91.0 °F 24.1 °F 9% 29.76 in 10.0 mi SSW 11.5 mph 20.7 mph N/A   Clear
11:53 AM 95.0 °F 25.0 °F 8% 29.73 in 10.0 mi WSW 16.1 mph 21.9 mph N/A   Clear
12:53 PM 96.1 °F 25.0 °F 8% 29.72 in 10.0 mi SW 9.2 mph - N/A   Clear
1:53 PM 96.1 °F 25.0 °F 8% 29.71 in 10.0 mi Variable 4.6 mph 18.4 mph N/A   Clear
2:53 PM 99.0 °F 26.1 °F 8% 29.70 in 10.0 mi West 17.3 mph 23.0 mph N/A   Clear
3:53 PM 98.1 °F 26.1 °F 8% 29.70 in 10.0 mi WSW 9.2 mph - N/A   Clear
4:53 PM 98.1 °F 25.0 °F 7% 29.70 in 10.0 mi West 9.2 mph 16.1 mph N/A   Clear
5:53 PM 97.0 °F 25.0 °F 8% 29.70 in 10.0 mi SSW 9.2 mph 18.4 mph N/A   Clear
6:53 PM 95.0 °F 26.1 °F 9% 29.70 in 10.0 mi WSW 9.2 mph - N/A   Clear
7:53 PM 91.0 °F 28.0 °F 10% 29.71 in 10.0 mi West 5.8 mph - N/A   Clear
8:53 PM 88.0 °F 34.0 °F 15% 29.73 in 10.0 mi West 9.2 mph - N/A   Clear
9:53 PM 86.0 °F 35.1 °F 16% 29.76 in 10.0 mi West 9.2 mph - N/A   Clear
10:53 PM 82.9 °F 35.1 °F 18% 29.78 in 10.0 mi West 4.6 mph - N/A   Clear
11:53 PM 81.0 °F 35.1 °F 19% 29.78 in 10.0 mi North 4.6 mph - N/A   Clear